,,,PA_Meas_PMT16A,,PR_Meas_QMR101_102,,RH_Meas_QMH101,,SR_Meas_QMS101,,TA_Meas_QMH101,,GenWind,,GenWind,
date,time,status,PA,status,PR,status,RH,status,SR,status,TA,status,DirAvg,status,SpdAvg,
2008-07-06, 00:00:05,VALID,1005.76,VALID,0,VALID,94.1862,VALID,0,VALID,23.0436,VALID,73,VALID,0,
2008-07-06, 00:01:05,VALID,1005.74,VALID,0,VALID,94.1022,VALID,0,VALID,23.0241,VALID,47,VALID,0.585547,
2008-07-06, 00:02:05,VALID,1005.72,VALID,0,VALID,94.2014,VALID,0,VALID,23.0436,VALID,44,VALID,0.289063,
2008-07-06, 00:03:05,VALID,1005.74,VALID,0,VALID,94.1938,VALID,0,VALID,23.0241,VALID,36,VALID,0.308594,
2008-07-06, 00:04:05,VALID,1005.74,VALID,0,VALID,94.2319,VALID,0,VALID,23.0241,VALID,40,VALID,0.458594,
2008-07-06, 00:05:05,VALID,1005.69,VALID,0,VALID,94.087,VALID,0,VALID,23.0046,VALID,40,VALID,0.101563,
2008-07-06, 00:06:05,VALID,1005.69,VALID,0,VALID,94.1633,VALID,0,VALID,23.0046,VALID,40,VALID,0.299219,
2008-07-06, 00:07:05,VALID,1005.65,VALID,0,VALID,94.2243,VALID,0,VALID,22.9852,VALID,40,VALID,0.0148437,
2008-07-06, 00:08:05,VALID,1005.67,VALID,0,VALID,94.1785,VALID,0,VALID,22.9852,VALID,40,VALID,0.165234,
2008-07-06, 00:09:05,VALID,1005.63,VALID,0,VALID,94.2624,VALID,0,VALID,22.9657,VALID,42,VALID,0.514453,
2008-07-06, 00:10:05,VALID,1005.62,VALID,0,VALID,94.3769,VALID,0,VALID,22.9852,VALID,55,VALID,0.514844,
2008-07-06, 00:11:05,VALID,1005.6,VALID,0,VALID,94.3921,VALID,0,VALID,22.9834,VALID,53,VALID,0.344531,
2008-07-06, 00:12:05,VALID,1005.58,VALID,0,VALID,94.3921,VALID,0,VALID,22.9852,VALID,57,VALID,0.487109,
2008-07-06, 00:13:05,VALID,1005.56,VALID,0,VALID,94.5981,VALID,0,VALID,23.0241,VALID,58,VALID,0.558203,
2008-07-06, 00:14:05,VALID,1005.55,VALID,0,VALID,94.682,VALID,0,VALID,23.063,VALID,62,VALID,0.487891,
2008-07-06, 00:15:05,VALID,1005.56,VALID,0,VALID,94.6973,VALID,0,VALID,23.0825,VALID,62,VALID,0.485547,
2008-07-06, 00:16:05,VALID,1005.56,VALID,0,VALID,94.7202,VALID,0,VALID,23.0807,VALID,62,VALID,0.359766,
2008-07-06, 00:17:05,VALID,1005.55,VALID,0,VALID,94.6897,VALID,0,VALID,23.1214,VALID,62,VALID,0.311328,
2008-07-06, 00:18:05,VALID,1005.55,VALID,0,VALID,94.4761,VALID,0,VALID,23.1019,VALID,56,VALID,0.626562,
2008-07-06, 00:19:05,VALID,1005.53,VALID,0,VALID,94.5295,VALID,0,VALID,23.1019,VALID,39,VALID,0.535156,
2008-07-06, 00:20:05,VALID,1005.52,VALID,0,VALID,94.6591,VALID,0,VALID,23.0807,VALID,39,VALID,0.333594,
2008-07-06, 00:21:05,VALID,1005.49,VALID,0,VALID,94.6744,VALID,0,VALID,23.1214,VALID,38,VALID,0.396094,
2008-07-06, 00:22:05,VALID,1005.5,VALID,0,VALID,94.7049,VALID,0,VALID,23.1197,VALID,38,VALID,0.268359,
2008-07-06, 00:23:05,VALID,1005.5,VALID,0,VALID,94.4761,VALID,0,VALID,23.1197,VALID,37,VALID,0.702734,
2008-07-06, 00:24:05,VALID,1005.48,VALID,0,VALID,94.4379,VALID,0,VALID,23.1214,VALID,52,VALID,0.269531,
2008-07-06, 00:25:05,VALID,1005.47,VALID,0,VALID,94.3845,VALID,0,VALID,23.1002,VALID,52,VALID,0.314453,
2008-07-06, 00:26:05,VALID,1005.46,VALID,0,VALID,94.3006,VALID,0,VALID,23.0825,VALID,30,VALID,0.803125,
2008-07-06, 00:27:05,VALID,1005.4,VALID,0,VALID,94.4684,VALID,0,VALID,23.1019,VALID,25,VALID,0.846875,
2008-07-06, 00:28:05,VALID,1005.4,VALID,0,VALID,94.087,VALID,0,VALID,23.0436,VALID,18,VALID,0.753125,
2008-07-06, 00:29:05,VALID,1005.37,VALID,0,VALID,94.8194,VALID,0,VALID,23.1002,VALID,23,VALID,1.20781,
2008-07-06, 00:30:05,VALID,1005.35,VALID,0,VALID,94.888,VALID,0,VALID,23.2187,VALID,21,VALID,1.325,
2008-07-06, 00:31:05,VALID,1005.33,VALID,0,VALID,94.888,VALID,0,VALID,23.355,VALID,28,VALID,0.801953,
2008-07-06, 00:32:05,VALID,1005.29,VALID,0,VALID,94.1862,VALID,0,VALID,23.3532,VALID,22,VALID,0.909766,
2008-07-06, 00:33:05,VALID,1005.28,VALID,0,VALID,94.3082,VALID,0,VALID,23.5107,VALID,6,VALID,0.622266,
2008-07-06, 00:34:05,VALID,1005.27,VALID,0,VALID,93.6826,VALID,0,VALID,23.5302,VALID,28,VALID,0.599219,
2008-07-06, 00:35:05,VALID,1005.23,VALID,0,VALID,93.3775,VALID,0,VALID,23.5089,VALID,27,VALID,0.780469,
2008-07-06, 00:36:05,VALID,1005.19,VALID,0,VALID,93.5987,VALID,0,VALID,23.5284,VALID,19,VALID,0.844141,
2008-07-06, 00:37:05,VALID,1005.2,VALID,0,VALID,93.4385,VALID,0,VALID,23.5496,VALID,21,VALID,0.59375,
2008-07-06, 00:38:05,VALID,1005.07,VALID,0,VALID,93.2859,VALID,0,VALID,23.5478,VALID,22,VALID,0.469141,
2008-07-06, 07:22:04,VALID,1005.81,VALID,0,VALID,96.1926,VALID,89.9033,VALID,23.9761,VALID,34,VALID,0,
2008-07-06, 07:23:04,VALID,1005.79,VALID,0,VALID,96.2383,VALID,91.7134,VALID,24.015,VALID,34,VALID,0,
2008-07-06, 07:24:04,VALID,1005.79,VALID,0,VALID,96.2154,VALID,93.6241,VALID,24.0363,VALID,34,VALID,0,
2008-07-06, 07:25:04,VALID,1005.8,VALID,0,VALID,96.2307,VALID,95.6354,VALID,24.0539,VALID,34,VALID,0,
2008-07-06, 07:26:04,VALID,1005.81,VALID,0,VALID,96.2231,VALID,97.7472,VALID,24.0947,VALID,34,VALID,0,
2008-07-06, 07:27:04,VALID,1005.79,VALID,0,VALID,96.2688,VALID,100.161,VALID,24.1513,VALID,34,VALID,0,
2008-07-06, 07:28:04,VALID,1005.79,VALID,0,VALID,96.2383,VALID,102.675,VALID,24.2115,VALID,34,VALID,0,
2008-07-06, 07:29:04,VALID,1005.79,VALID,0,VALID,96.2383,VALID,105.289,VALID,24.231,VALID,34,VALID,0,
2008-07-06, 07:30:04,VALID,1005.8,VALID,0,VALID,96.2231,VALID,107.904,VALID,24.2504,VALID,34,VALID,0,
2008-07-06, 07:31:04,VALID,1005.8,VALID,0,VALID,96.2383,VALID,110.619,VALID,24.3088,VALID,34,VALID,0,
2008-07-06, 07:32:04,VALID,1005.83,VALID,0,VALID,96.2078,VALID,113.636,VALID,24.3478,VALID,34,VALID,0.247656,
2008-07-06, 07:33:04,VALID,1005.85,VALID,0,VALID,96.1849,VALID,117.357,VALID,24.3265,VALID,33,VALID,0.342187,
2008-07-06, 07:34:04,VALID,1005.88,VALID,0,VALID,96.2078,VALID,121.983,VALID,24.3867,VALID,33,VALID,0.262109,
2008-07-06, 07:35:04,VALID,1005.88,VALID,0,VALID,96.2002,VALID,126.106,VALID,24.4238,VALID,33,VALID,0.025,
2008-07-06, 07:36:04,VALID,1005.89,VALID,0,VALID,96.2002,VALID,129.525,VALID,24.5443,VALID,33,VALID,0,
2008-07-06, 07:37:04,VALID,1005.9,VALID,0,VALID,96.2231,VALID,129.827,VALID,24.6009,VALID,33,VALID,0.0359375,
2008-07-06, 07:38:04,VALID,1005.92,VALID,0,VALID,96.2307,VALID,132.039,VALID,24.6983,VALID,33,VALID,0,
2008-07-06, 07:39:04,VALID,1005.91,VALID,0,VALID,96.2078,VALID,134.654,VALID,24.7391,VALID,33,VALID,0,
2008-07-06, 07:40:04,VALID,1005.93,VALID,0,VALID,96.1926,VALID,136.665,VALID,24.7567,VALID,31,VALID,0.235938,
2008-07-06, 07:41:04,VALID,1005.95,VALID,0,VALID,96.162,VALID,133.548,VALID,24.7761,VALID,283,VALID,0.511719,
2008-07-06, 07:42:04,VALID,1005.93,VALID,0,VALID,96.0934,VALID,129.927,VALID,24.817,VALID,282,VALID,0.274609,
2008-07-06, 07:43:04,VALID,1005.97,VALID,0,VALID,96.0095,VALID,127.413,VALID,24.7372,VALID,280,VALID,0.124609,
2008-07-06, 07:44:04,VALID,1005.99,VALID,0,VALID,95.9713,VALID,136.363,VALID,24.675,VALID,280,VALID,0.0148437,
2008-07-06, 07:45:04,VALID,1006.01,VALID,0,VALID,95.9637,VALID,146.822,VALID,24.7567,VALID,280,VALID,0.100781,
2008-07-06, 07:46:04,VALID,1006.02,VALID,0,VALID,95.9484,VALID,154.967,VALID,24.7956,VALID,281,VALID,0.0714844,
2008-07-06, 07:47:04,VALID,1006.04,VALID,0,VALID,95.9103,VALID,172.264,VALID,24.7937,VALID,282,VALID,0.219922,
2008-07-06, 07:48:04,VALID,1006.08,VALID,0,VALID,95.9103,VALID,185.539,VALID,24.854,VALID,290,VALID,0.225391,
2008-07-06, 07:49:04,VALID,1006.04,VALID,0,VALID,95.5899,VALID,194.086,VALID,24.7956,VALID,348,VALID,0.473437,
2008-07-06, 07:50:04,VALID,1006.06,VALID,0,VALID,95.3152,VALID,204.143,VALID,24.7372,VALID,351,VALID,0.789453,
2008-07-06, 07:51:04,VALID,1006.05,VALID,0,VALID,95.1016,VALID,209.774,VALID,24.6593,VALID,351,VALID,0.705859,
2008-07-06, 07:52:04,VALID,1006.02,VALID,0,VALID,95.1245,VALID,208.769,VALID,24.638,VALID,355,VALID,0.677734,
2008-07-06, 07:53:04,VALID,1006.03,VALID,0,VALID,95.1093,VALID,217.317,VALID,24.599,VALID,355,VALID,0.453516,
2008-07-06, 07:54:04,VALID,1006.02,VALID,0,VALID,95.2618,VALID,240.144,VALID,24.6593,VALID,354,VALID,0.521094,
2008-07-06, 07:55:04,VALID,1006.02,VALID,0,VALID,95.3534,VALID,243.563,VALID,24.7372,VALID,356,VALID,0.642187,
2008-07-06, 07:56:04,VALID,1006.01,VALID,0,VALID,95.155,VALID,225.462,VALID,24.7372,VALID,354,VALID,0.941797,
2008-07-06, 07:57:04,VALID,1006.04,VALID,0,VALID,94.9796,VALID,247.184,VALID,24.7567,VALID,355,VALID,0.656641,
2008-07-06, 07:58:04,VALID,1006.03,VALID,0,VALID,95.033,VALID,267.095,VALID,24.7937,VALID,352,VALID,0.520312,
2008-07-06, 07:59:04,VALID,1006.03,VALID,0,VALID,94.9796,VALID,249.597,VALID,24.8735,VALID,354,VALID,0.76875,
2008-07-06, 08:00:04,VALID,1006.02,VALID,0,VALID,94.8575,VALID,226.669,VALID,24.9125,VALID,352,VALID,0.720703,
2008-07-06, 08:01:04,VALID,1006.02,VALID,0,VALID,94.7888,VALID,231.496,VALID,24.9709,VALID,353,VALID,0.696484,
2008-07-06, 08:02:04,VALID,1006.02,VALID,0,VALID,94.7965,VALID,243.463,VALID,25.0488,VALID,347,VALID,0.323828,
2008-07-06, 08:03:04,VALID,1006.02,VALID,0,VALID,94.6973,VALID,275.542,VALID,25.1461,VALID,347,VALID,0.642969,
2008-07-06, 08:04:04,VALID,1006.04,VALID,0,VALID,94.7202,VALID,285.297,VALID,25.224,VALID,347,VALID,0.388281,
2008-07-06, 08:05:04,VALID,1006.01,VALID,0,VALID,94.8651,VALID,293.543,VALID,25.3818,VALID,347,VALID,0.276953,
2008-07-06, 08:06:04,VALID,1006.02,VALID,0,VALID,94.8346,VALID,307.32,VALID,25.4967,VALID,356,VALID,0.04375,
2008-07-06, 08:07:04,VALID,1006.04,VALID,0,VALID,94.4455,VALID,317.377,VALID,25.5941,VALID,355,VALID,0.530859,
2008-07-06, 08:08:04,VALID,1006.04,VALID,0,VALID,94.1785,VALID,319.388,VALID,25.7324,VALID,343,VALID,0.478906,
2008-07-06, 08:09:04,VALID,1006.02,VALID,0,VALID,93.6445,VALID,338.193,VALID,25.8103,VALID,359,VALID,0.730078,
2008-07-06, 08:10:04,VALID,1006.03,VALID,0,VALID,93.1944,VALID,344.328,VALID,25.9077,VALID,344,VALID,0.382422,
2008-07-06, 08:11:04,VALID,1006.06,VALID,0,VALID,93.5072,VALID,346.842,VALID,26.0246,VALID,311,VALID,0.0808594,
2008-07-06, 08:12:04,VALID,1006.04,VALID,0,VALID,92.3857,VALID,352.071,VALID,26.1025,VALID,351,VALID,0.5875,
2008-07-06, 08:13:04,VALID,1006.03,VALID,0,VALID,92.4163,VALID,357.904,VALID,26.1979,VALID,324,VALID,0.378906,
2008-07-06, 08:14:04,VALID,1006.03,VALID,0,VALID,91.8365,VALID,365.747,VALID,26.2973,VALID,333,VALID,0.316016,
2008-07-06, 08:15:04,VALID,1006.07,VALID,0,VALID,91.3177,VALID,378.921,VALID,26.3363,VALID,338,VALID,0.15625,
2008-07-06, 08:16:04,VALID,1006.06,VALID,0,VALID,91.3864,VALID,395.715,VALID,26.4922,VALID,339,VALID,0.239844,
2008-07-06, 08:17:04,VALID,1006.05,VALID,0,VALID,90.8218,VALID,408.286,VALID,26.6265,VALID,336,VALID,0.298047,
2008-07-06, 08:18:04,VALID,1006.08,VALID,0,VALID,91.0583,VALID,424.275,VALID,26.7455,VALID,323,VALID,0.149219,
2008-07-06, 08:19:04,VALID,1006.06,VALID,0,VALID,90.8066,VALID,426.387,VALID,26.8798,VALID,323,VALID,0.195703,
2008-07-06, 08:20:04,VALID,1006.06,VALID,0,VALID,89.6927,VALID,444.79,VALID,27.0162,VALID,323,VALID,0.289844,
2008-07-06, 08:21:04,VALID,1006.07,VALID,0,VALID,89.5936,VALID,451.025,VALID,27.0962,VALID,228,VALID,0.480078,
2008-07-06, 08:22:04,VALID,1006.08,VALID,0,VALID,88.6018,VALID,447.807,VALID,27.1352,VALID,239,VALID,0.239844,
2008-07-06, 08:23:04,VALID,1006.1,VALID,0,VALID,88.6705,VALID,467.014,VALID,27.0767,VALID,191,VALID,0.463281,
2008-07-06, 08:24:04,VALID,1006.1,VALID,0,VALID,86.9311,VALID,483.507,VALID,27.0162,VALID,214,VALID,0.454297,
2008-07-06, 08:25:04,VALID,1006.08,VALID,0,VALID,88.2204,VALID,510.055,VALID,27.0552,VALID,215,VALID,0.228906,
2008-07-06, 08:26:04,VALID,1006.09,VALID,0,VALID,88.3424,VALID,504.625,VALID,27.2131,VALID,214,VALID,0.383203,
2008-07-06, 08:27:04,VALID,1006.12,VALID,0,VALID,87.3888,VALID,556.716,VALID,27.3106,VALID,257,VALID,0.296094,
2008-07-06, 08:28:04,VALID,1006.12,VALID,0,VALID,84.4212,VALID,402.654,VALID,27.3496,VALID,356,VALID,0.622266,
2008-07-06, 08:29:04,VALID,1006.11,VALID,0,VALID,85.7486,VALID,295.253,VALID,27.4644,VALID,357,VALID,0.200391,
2008-07-06, 08:30:04,VALID,1006.09,VALID,0,VALID,84.9628,VALID,408.286,VALID,27.5618,VALID,357,VALID,0.326172,
2008-07-06, 08:31:04,VALID,1006.13,VALID,0,VALID,85.2222,VALID,379.625,VALID,27.6593,VALID,326,VALID,0.306641,
2008-07-06, 08:32:04,VALID,1006.11,VALID,0,VALID,81.9723,VALID,405.973,VALID,27.6593,VALID,95,VALID,0.55,
2008-07-06, 08:33:04,VALID,1006.13,VALID,0,VALID,80.828,VALID,281.878,VALID,27.5229,VALID,122,VALID,0.930078,
2008-07-06, 08:34:04,VALID,1006.16,VALID,0,VALID,80.4618,VALID,318.885,VALID,27.2521,VALID,124,VALID,1.11133,
2008-07-06, 08:35:04,VALID,1006.17,VALID,0,VALID,81.1331,VALID,483.004,VALID,27.0962,VALID,110,VALID,1.025,
2008-07-06, 08:36:04,VALID,1006.17,VALID,0,VALID,82.7962,VALID,659.894,VALID,26.9988,VALID,100,VALID,0.617969,
2008-07-06, 08:37:04,VALID,1006.15,VALID,0,VALID,82.3919,VALID,339.299,VALID,27.0962,VALID,96,VALID,0.439453,
2008-07-06, 08:38:04,VALID,1006.14,VALID,0,VALID,82.1707,VALID,304.706,VALID,27.1721,VALID,138,VALID,0.705078,
2008-07-06, 08:39:04,VALID,1006.13,VALID,0,VALID,83.5057,VALID,443.382,VALID,27.2131,VALID,70,VALID,0.707031,
2008-07-06, 08:40:04,VALID,1006.14,VALID,0,VALID,84.2076,VALID,647.927,VALID,27.1547,VALID,148,VALID,0.935938,
2008-07-06, 08:41:04,VALID,1006.11,VALID,0,VALID,84.7645,VALID,286.303,VALID,27.2131,VALID,140,VALID,0.227734,
2008-07-06, 08:42:04,VALID,1006.12,VALID,0,VALID,82.3766,VALID,263.877,VALID,27.2131,VALID,205,VALID,0.650391,
2008-07-06, 08:43:04,VALID,1006.11,VALID,0,VALID,82.2164,VALID,266.995,VALID,27.1157,VALID,214,VALID,1.26094,
2008-07-06, 08:44:04,VALID,1006.08,VALID,0,VALID,81.3391,VALID,282.18,VALID,26.9813,VALID,201,VALID,1.42813,
2008-07-06, 08:45:04,VALID,1006.12,VALID,0,VALID,83.0861,VALID,290.929,VALID,26.8819,VALID,184,VALID,1.24375,
2008-07-06, 08:46:04,VALID,1006.16,VALID,0,VALID,83.3989,VALID,309.231,VALID,26.7455,VALID,194,VALID,0.955469,
2008-07-06, 08:47:04,VALID,1006.15,VALID,0,VALID,83.315,VALID,289.722,VALID,26.726,VALID,190,VALID,1.00977,
2008-07-06, 08:48:04,VALID,1006.15,VALID,0,VALID,84.0474,VALID,285.498,VALID,26.7065,VALID,214,VALID,0.932813,
2008-07-06, 08:49:04,VALID,1006.15,VALID,0,VALID,84.8103,VALID,273.431,VALID,26.726,VALID,191,VALID,0.994531,
2008-07-06, 08:50:04,VALID,1006.14,VALID,0,VALID,83.1395,VALID,267.699,VALID,26.7065,VALID,206,VALID,1.09922,
2008-07-06, 08:51:04,VALID,1006.18,VALID,0,VALID,83.8948,VALID,279.565,VALID,26.687,VALID,182,VALID,1.06836,
2008-07-06, 08:52:04,VALID,1006.17,VALID,0,VALID,85.3061,VALID,296.46,VALID,26.6675,VALID,152,VALID,0.444141,
2008-07-06, 08:53:04,VALID,1006.18,VALID,0,VALID,84.322,VALID,312.952,VALID,26.726,VALID,190,VALID,1.08438,
2008-07-06, 08:54:04,VALID,1006.19,VALID,0,VALID,83.6888,VALID,515.586,VALID,26.726,VALID,184,VALID,0.592578,
2008-07-06, 08:55:04,VALID,1006.19,VALID,0,VALID,83.7498,VALID,595.031,VALID,26.8234,VALID,172,VALID,0.466406,
2008-07-06, 08:56:04,VALID,1006.16,VALID,0,VALID,85.0696,VALID,840.505,VALID,27.0377,VALID,174,VALID,0.580859,
2008-07-06, 08:57:04,VALID,1006.17,VALID,0,VALID,81.9418,VALID,864.841,VALID,27.1957,VALID,192,VALID,1.08555,
2008-07-06, 08:58:04,VALID,1006.17,VALID,0,VALID,80.9729,VALID,874.596,VALID,27.3496,VALID,139,VALID,1.36641,
2008-07-06, 08:59:04,VALID,1006.21,VALID,0,VALID,82.3156,VALID,804.202,VALID,27.4839,VALID,167,VALID,1.58633,
2008-07-06, 09:00:04,VALID,1006.18,VALID,0,VALID,80.1795,VALID,679.604,VALID,27.7178,VALID,210,VALID,1.54375,
2008-07-06, 09:01:04,VALID,1006.19,VALID,0,VALID,78.3944,VALID,672.062,VALID,27.7178,VALID,212,VALID,1.05352,
2008-07-06, 09:02:04,VALID,1006.21,VALID,0,VALID,78.8521,VALID,507.441,VALID,27.6983,VALID,216,VALID,0.876953,
2008-07-06, 09:03:04,VALID,1006.22,VALID,0,VALID,78.669,VALID,468.02,VALID,27.7394,VALID,211,VALID,1.34961,
2008-07-06, 09:04:04,VALID,1006.24,VALID,0,VALID,81.6748,VALID,331.154,VALID,27.6572,VALID,170,VALID,1.31094,
2008-07-06, 09:05:04,VALID,1006.26,VALID,0,VALID,78.0511,VALID,333.064,VALID,27.525,VALID,162,VALID,1.43086,
2008-07-06, 09:06:04,VALID,1006.25,VALID,0,VALID,78.1503,VALID,592.215,VALID,27.367,VALID,147,VALID,1.4582,
2008-07-06, 09:07:04,VALID,1006.26,VALID,0,VALID,79.6455,VALID,586.785,VALID,27.3475,VALID,161,VALID,0.854297,
2008-07-06, 09:08:04,VALID,1006.26,VALID,0,VALID,79.6989,VALID,389.48,VALID,27.4275,VALID,217,VALID,0.671484,
2008-07-06, 09:09:04,VALID,1006.26,VALID,0,VALID,79.7599,VALID,431.314,VALID,27.4644,VALID,174,VALID,0.7125,
2008-07-06, 09:10:04,VALID,1006.24,VALID,0,VALID,80.4084,VALID,426.588,VALID,27.5618,VALID,178,VALID,1.48281,
2008-07-06, 09:11:04,VALID,1006.22,VALID,0,VALID,77.8985,VALID,407.38,VALID,27.4449,VALID,177,VALID,1.74648,
2008-07-06, 09:12:04,VALID,1006.24,VALID,0,VALID,78.5546,VALID,501.507,VALID,27.3475,VALID,152,VALID,1.52383,
2008-07-06, 09:13:04,VALID,1006.25,VALID,0,VALID,79.0047,VALID,393.704,VALID,27.4275,VALID,175,VALID,1.14453,
2008-07-06, 09:14:04,VALID,1006.28,VALID,0,VALID,79.081,VALID,339.601,VALID,27.4059,VALID,190,VALID,1.2043,
2008-07-06, 09:15:04,VALID,1006.28,VALID,0,VALID,82.3919,VALID,328.74,VALID,27.4059,VALID,174,VALID,0.921484,
2008-07-06, 09:16:04,VALID,1006.27,VALID,0,VALID,79.3938,VALID,382.039,VALID,27.3475,VALID,184,VALID,1.71602,
2008-07-06, 09:17:04,VALID,1006.26,VALID,0,VALID,80.1566,VALID,855.791,VALID,27.328,VALID,122,VALID,0.877734,
2008-07-06, 09:18:04,VALID,1006.26,VALID,0,VALID,80.9424,VALID,776.748,VALID,27.4233,VALID,166,VALID,0.899219,
2008-07-06, 09:19:04,VALID,1006.24,VALID,0,VALID,79.3861,VALID,378.519,VALID,27.6008,VALID,205,VALID,2.47305,
2008-07-06, 09:20:04,VALID,1006.2,VALID,0,VALID,77.0364,VALID,301.89,VALID,27.5639,VALID,211,VALID,1.47852,
2008-07-06, 09:21:04,VALID,1006.18,VALID,0,VALID,78.2037,VALID,287.811,VALID,27.4059,VALID,215,VALID,1.08125,
2008-07-06, 09:22:04,VALID,1006.19,VALID,0,VALID,78.8903,VALID,296.258,VALID,27.289,VALID,206,VALID,1.34063,
2008-07-06, 09:23:04,VALID,1006.19,VALID,0,VALID,78.6004,VALID,500.502,VALID,27.2306,VALID,225,VALID,0.566406,
2008-07-06, 09:24:04,VALID,1006.18,VALID,0,VALID,81.095,VALID,622.284,VALID,27.3085,VALID,155,VALID,1.72852,
2008-07-06, 09:25:04,VALID,1006.17,VALID,0,VALID,81.4536,VALID,596.741,VALID,27.3454,VALID,154,VALID,1.00781,
2008-07-06, 09:26:04,VALID,1006.15,VALID,0,VALID,81.6367,VALID,730.992,VALID,27.4644,VALID,146,VALID,0.842578,
2008-07-06, 09:27:04,VALID,1006.16,VALID,0,VALID,77.4102,VALID,704.846,VALID,27.6593,VALID,184,VALID,2.13203,
2008-07-06, 09:28:04,VALID,1006.17,VALID,0,VALID,77.8451,VALID,755.63,VALID,27.6983,VALID,172,VALID,1.86641,
2008-07-06, 09:29:04,VALID,1006.16,VALID,0,VALID,79.1115,VALID,818.985,VALID,27.6788,VALID,169,VALID,1.3375,
2008-07-06, 09:30:04,VALID,1006.18,VALID,0,VALID,80.2558,VALID,967.013,VALID,27.7567,VALID,161,VALID,0.652734,
2008-07-06, 09:31:04,VALID,1006.15,VALID,0,VALID,79.0123,VALID,902.351,VALID,27.9321,VALID,122,VALID,0.995703,
2008-07-06, 09:32:04,VALID,1006.17,VALID,0,VALID,76.5558,VALID,784.592,VALID,27.9906,VALID,138,VALID,1.40703,
2008-07-06, 09:33:04,VALID,1006.15,VALID,0,VALID,76.6702,VALID,800.883,VALID,27.9906,VALID,100,VALID,1.31484,
2008-07-06, 09:34:04,VALID,1006.15,VALID,0,VALID,77.7459,VALID,799.576,VALID,28.0665,VALID,117,VALID,1.75703,
2008-07-06, 09:35:04,VALID,1006.14,VALID,0,VALID,79.1954,VALID,894.507,VALID,28.1487,VALID,178,VALID,1.73164,
2008-07-06, 09:36:04,VALID,1006.18,VALID,0,VALID,75.7548,VALID,507.843,VALID,28.1855,VALID,175,VALID,1.89102,
2008-07-06, 09:37:04,VALID,1006.18,VALID,0,VALID,75.4267,VALID,783.687,VALID,28.0101,VALID,149,VALID,1.91836,
2008-07-06, 09:38:04,VALID,1006.14,VALID,0,VALID,77.1814,VALID,937.046,VALID,27.9711,VALID,152,VALID,1.1543,
2008-07-06, 09:39:04,VALID,1006.14,VALID,0,VALID,76.3346,VALID,896.016,VALID,28.0686,VALID,181,VALID,0.78125,
2008-07-06, 09:40:04,VALID,1006.13,VALID,0,VALID,77.4179,VALID,868.763,VALID,28.205,VALID,206,VALID,0.525781,
2008-07-06, 09:41:04,VALID,1006.11,VALID,0,VALID,77.5781,VALID,487.429,VALID,28.283,VALID,125,VALID,1.79219,
2008-07-06, 09:42:04,VALID,1006.12,VALID,0,VALID,75.9608,VALID,411.906,VALID,28.3241,VALID,118,VALID,1.54453,
2008-07-06, 09:43:04,VALID,1006.15,VALID,0,VALID,76.0218,VALID,364.138,VALID,28.322,VALID,196,VALID,1.44727,
2008-07-06, 09:44:04,VALID,1006.13,VALID,0,VALID,78.6385,VALID,368.06,VALID,28.2635,VALID,171,VALID,1.3582,
2008-07-06, 09:45:04,VALID,1006.14,VALID,0,VALID,77.8527,VALID,391.089,VALID,28.166,VALID,141,VALID,1.37383,
2008-07-06, 09:46:04,VALID,1006.16,VALID,0,VALID,78.0968,VALID,678.498,VALID,28.1076,VALID,229,VALID,0.864844,
2008-07-06, 09:47:04,VALID,1006.13,VALID,0,VALID,76.1057,VALID,774.335,VALID,28.1466,VALID,202,VALID,1.60312,
2008-07-06, 09:48:04,VALID,1006.12,VALID,0,VALID,81.507,VALID,688.454,VALID,28.205,VALID,185,VALID,0.389062,
2008-07-06, 09:49:04,VALID,1006.12,VALID,0,VALID,79.6608,VALID,618.06,VALID,28.4,VALID,107,VALID,0.440625,
2008-07-06, 09:50:04,VALID,1006.08,VALID,0,VALID,77.1432,VALID,475.562,VALID,28.6339,VALID,212,VALID,1.20391,
2008-07-06, 09:51:04,VALID,1006.07,VALID,0,VALID,75.5641,VALID,403.157,VALID,28.4801,VALID,180,VALID,1.55156,
2008-07-06, 09:52:04,VALID,1006.11,VALID,0,VALID,76.9067,VALID,580.148,VALID,28.2462,VALID,189,VALID,0.994531,
2008-07-06, 09:53:04,VALID,1006.07,VALID,0,VALID,75.915,VALID,684.633,VALID,28.1097,VALID,189,VALID,1.87891,
2008-07-06, 09:54:04,VALID,1006.03,VALID,0,VALID,77.7535,VALID,875.803,VALID,28.0122,VALID,178,VALID,1.38008,
2008-07-06, 09:55:04,VALID,1006.03,VALID,0,VALID,80.4847,VALID,1002.41,VALID,28.1855,VALID,271,VALID,0.708203,
2008-07-06, 09:56:04,VALID,1006.06,VALID,0,VALID,76.7236,VALID,560.437,VALID,28.4021,VALID,225,VALID,1.70859,
2008-07-06, 09:57:04,VALID,1006.01,VALID,0,VALID,76.7236,VALID,543.14,VALID,28.3046,VALID,180,VALID,1.47578,
2008-07-06, 09:58:04,VALID,1006.03,VALID,0,VALID,74.9309,VALID,620.272,VALID,28.2267,VALID,219,VALID,1.45898,
2008-07-06, 09:59:04,VALID,1006.04,VALID,0,VALID,75.6785,VALID,383.346,VALID,28.0686,VALID,214,VALID,1.52969,
2008-07-06, 10:00:04,VALID,1006.06,VALID,0,VALID,77.6925,VALID,304.505,VALID,28.0122,VALID,201,VALID,1.80977,
2008-07-06, 10:01:04,VALID,1006.06,VALID,0,VALID,77.5857,VALID,344.026,VALID,27.8563,VALID,181,VALID,1.28086,
2008-07-06, 10:02:04,VALID,1006.04,VALID,0,VALID,76.5329,VALID,398.732,VALID,27.7199,VALID,186,VALID,1.07852,
2008-07-06, 10:03:04,VALID,1006.03,VALID,0,VALID,76.6016,VALID,485.116,VALID,27.7199,VALID,208,VALID,1.00508,
2008-07-06, 10:04:04,VALID,1006.02,VALID,0,VALID,77.2882,VALID,506.636,VALID,27.7199,VALID,215,VALID,0.898828,
2008-07-06, 10:05:04,VALID,1006.03,VALID,0,VALID,77.6696,VALID,478.78,VALID,27.7783,VALID,217,VALID,1.09258,
2008-07-06, 10:06:04,VALID,1006.01,VALID,0,VALID,77.7459,VALID,391.994,VALID,27.8953,VALID,262,VALID,0.651563,
2008-07-06, 10:07:04,VALID,1006.03,VALID,0,VALID,76.9449,VALID,324.718,VALID,28.0512,VALID,281,VALID,0.937109,
2008-07-06, 10:08:04,VALID,1006.01,VALID,0,VALID,75.9455,VALID,322.405,VALID,28.0902,VALID,221,VALID,0.915234,
2008-07-06, 10:09:04,VALID,1006,VALID,0,VALID,78.8674,VALID,364.943,VALID,28.0101,VALID,205,VALID,0.956641,
2008-07-06, 10:10:04,VALID,1006.01,VALID,0,VALID,75.5641,VALID,369.066,VALID,27.9927,VALID,204,VALID,1.76523,
2008-07-06, 10:11:04,VALID,1006,VALID,0,VALID,76.8457,VALID,368.161,VALID,27.8563,VALID,231,VALID,1.6707,
2008-07-06, 10:12:04,VALID,1006.01,VALID,0,VALID,77.4179,VALID,391.894,VALID,27.7978,VALID,222,VALID,1.09297,
2008-07-06, 10:13:04,VALID,1005.99,VALID,0,VALID,78.0358,VALID,448.008,VALID,27.7199,VALID,196,VALID,1.98359,
2008-07-06, 10:14:04,VALID,1006,VALID,0,VALID,80.3397,VALID,380.43,VALID,27.6788,VALID,193,VALID,1.18203,
2008-07-06, 10:15:04,VALID,1006.01,VALID,0,VALID,77.3416,VALID,393.603,VALID,27.6203,VALID,189,VALID,1.19219,
2008-07-06, 10:16:04,VALID,1006.03,VALID,0,VALID,78.0816,VALID,371.781,VALID,27.5813,VALID,222,VALID,1.63516,
2008-07-06, 10:17:04,VALID,1006.06,VALID,0,VALID,76.6779,VALID,369.871,VALID,27.5639,VALID,282,VALID,1.08164,
2008-07-06, 10:18:04,VALID,1006.09,VALID,0,VALID,77.5476,VALID,434.532,VALID,27.5229,VALID,214,VALID,1.23672,
2008-07-06, 10:19:04,VALID,1006.08,VALID,0,VALID,77.2119,VALID,442.578,VALID,27.5229,VALID,205,VALID,1.21953,